Regional Weather Roundup
Issued by NWS

Home | Current Version | Previous Version | Graphics & Text | Print | Product List | Glossary On
Versions: 1 2 3 4 5 6 7 8 9 10 11 12 13 14 15 16 17 18 19 20 21 22 23 24 25 26 27 28 29 30 31 32 33 34 35 36 37 38 39 40 41 42 43 44 45 46 47 48 49 50
832
ASUS44 KMEG 281110
RWRTN
TENNESSEE HOURLY STATE WEATHER ROUNDUP
NATIONAL WEATHER SERVICE MEMPHIS TN
600 AM CDT SUN AUG 28 2016

TNZ002-004-019-021-049-052-054-088>092-281200-
WEST TENNESSEE

CITY           SKY/WX    TMP DP  RH WIND       PRES   REMARKS
MEMPHIS INTL   CLEAR     77  71  82 E6        30.07R
NWS MEMPHIS      N/A     73 N/A N/A MISG        N/A
JACKSON        FOG       71  71 100 CALM      30.10R VSB 3/4
DYERSBURG      CLEAR     73  70  88 MISG      30.09R
UNION CITY     CLEAR     70  70 100 CALM      30.09R
PARIS          CLEAR     68  68 100 CALM      30.11R
$$

TNZ008-025-027-028-033-062-065-066-281200-
NORTH MIDDLE TENNESSEE

CITY           SKY/WX    TMP DP  RH WIND       PRES   REMARKS
NASHVILLE      PTCLDY    71  69  93 S3        30.14R FOG
CLARKSVILLE    CLEAR     71  69  93 CALM      30.12R
COOKEVILLE     CLEAR     66  66 100 CALM      30.16R
CROSSVILLE     PTCLDY    68  67  96 CALM      30.22R
$$

TNZ061-075-076-078-094-096-097-281200-
SOUTH MIDDLE TENNESSEE

CITY           SKY/WX    TMP DP  RH WIND       PRES   REMARKS
FAYETTEVILLE   CLOUDY    73  70  88 NE6       30.14R
TULLAHOMA      CLEAR     70  66  88 CALM      30.17R
WINCHESTER     CLEAR     72  68  88 S3        30.16R
MCMINNVILLE    CLEAR     70  70 100 CALM      30.16R
COLUMBIA       CLEAR    N/A N/A N/A CALM      30.12R
SHELBYVILLE    CLEAR     72  70  94 CALM      30.15R
$$

TNZ017-018-042-046-047-281200-
NORTHEAST TENNESSEE

CITY           SKY/WX    TMP DP  RH WIND       PRES   REMARKS
TRI CITIES     MOCLDY    72  70  93 CALM      30.22R
ELIZABETHTON     N/A     73  70  88 CALM      30.22R
$$

TNZ012-013-036-069-073-074-281200-
CENTRAL EAST TENNESSEE

CITY           SKY/WX    TMP DP  RH WIND       PRES   REMARKS
KNOXVILLE      PTCLDY    70  68  93 NE3       30.17R
GATLINBURG     CLEAR     66  66 100 CALM      30.18R
MORRISTOWN     CLEAR     70  68  94 CALM      30.19R
$$

TNZ083-085-099-281200-
SOUTHEAST TENNESSEE

CITY           SKY/WX    TMP DP  RH WIND       PRES   REMARKS
CHATTANOOGA    PTCLDY    72  69  90 CALM      30.15R
$$

SKY/WX REPORTED AS FAIR MEANS FEW OR NO CLOUDS BELOW
12 THOUSAND FEET.





USA.gov is the U.S. government's official web portal to all federal, state and local government web resources and services.